GEFSSE_prec_meanprecacc_102.txt.gz
Total_Precipitation_Accumulation
0.30 0.16 0.30 0.33 0.29 0.27 0.33 0.41 0.43 0.42 0.45 0.55 0.52 0.47 0.42 0.26 0.20 0.18 0.19 0.20 0.27 0.38 0.37 0.33 0.30 0.26 0.20 0.19 0.23 0.29 0.36 0.44 0.49 0.51 0.59 0.62 0.58 0.58 0.68 0.77 0.82 1.02 0.67
0.30 0.21 0.32 0.35 0.29 0.25 0.28 0.33 0.39 0.39 0.41 0.48 0.49 0.49 0.36 0.22 0.18 0.17 0.17 0.18 0.22 0.27 0.28 0.31 0.34 0.30 0.23 0.26 0.31 0.34 0.36 0.41 0.50 0.53 0.67 0.67 0.57 0.60 0.57 0.58 0.71 0.89 0.64
0.30 0.22 0.27 0.36 0.30 0.26 0.27 0.35 0.42 0.44 0.47 0.51 0.53 0.53 0.31 0.18 0.17 0.17 0.19 0.21 0.23 0.19 0.21 0.28 0.33 0.32 0.27 0.30 0.37 0.38 0.39 0.41 0.48 0.55 0.88 1.23 0.77 0.63 0.63 0.65 0.65 0.59 0.62
0.33 0.30 0.37 0.46 0.39 0.33 0.35 0.45 0.53 0.59 0.62 0.68 0.66 0.49 0.26 0.20 0.21 0.21 0.24 0.27 0.23 0.16 0.16 0.20 0.26 0.27 0.24 0.29 0.35 0.34 0.40 0.44 0.53 0.62 0.94 1.31 1.12 0.87 0.80 0.79 0.71 0.53 0.59
0.34 0.41 0.55 0.58 0.50 0.45 0.45 0.53 0.65 0.73 0.72 0.75 0.70 0.45 0.30 0.26 0.24 0.26 0.30 0.26 0.18 0.15 0.13 0.14 0.18 0.19 0.19 0.20 0.25 0.31 0.38 0.49 0.66 0.72 0.96 1.23 1.31 0.93 0.79 0.88 0.85 0.66 0.67
0.31 0.35 0.47 0.57 0.52 0.51 0.57 0.63 0.65 0.60 0.61 0.69 0.61 0.46 0.33 0.33 0.32 0.33 0.27 0.18 0.15 0.15 0.13 0.12 0.14 0.14 0.15 0.14 0.19 0.28 0.40 0.52 0.64 0.81 0.99 1.26 1.24 0.83 0.72 0.84 0.91 0.83 0.76
0.40 0.36 0.44 0.52 0.48 0.48 0.58 0.66 0.67 0.57 0.61 0.65 0.62 0.55 0.38 0.36 0.36 0.35 0.26 0.19 0.17 0.16 0.14 0.13 0.12 0.10 0.10 0.12 0.15 0.23 0.35 0.37 0.55 0.79 0.96 1.26 0.98 0.64 0.57 0.75 0.98 1.02 0.92
0.55 0.49 0.46 0.53 0.50 0.50 0.56 0.64 0.66 0.64 0.70 0.67 0.55 0.50 0.47 0.38 0.36 0.32 0.25 0.22 0.19 0.19 0.20 0.15 0.10 0.09 0.10 0.13 0.16 0.20 0.26 0.25 0.35 0.57 0.76 1.02 0.86 0.70 0.52 0.59 0.81 0.95 0.98
0.65 0.61 0.56 0.56 0.57 0.59 0.68 0.68 0.71 0.77 0.86 0.82 0.61 0.52 0.53 0.41 0.32 0.28 0.26 0.23 0.20 0.21 0.23 0.18 0.12 0.10 0.11 0.14 0.16 0.16 0.19 0.22 0.32 0.45 0.56 0.76 0.75 0.68 0.50 0.52 0.67 0.79 0.92
0.64 0.62 0.56 0.57 0.61 0.65 0.74 0.78 0.79 0.79 0.86 0.84 0.71 0.66 0.64 0.47 0.35 0.31 0.28 0.29 0.28 0.27 0.29 0.24 0.18 0.15 0.13 0.13 0.13 0.13 0.14 0.18 0.32 0.37 0.49 0.50 0.61 0.55 0.41 0.41 0.49 0.58 0.65
0.58 0.61 0.58 0.56 0.60 0.66 0.76 0.78 0.87 0.88 0.91 0.84 0.76 0.79 0.69 0.49 0.44 0.43 0.35 0.38 0.40 0.44 0.39 0.33 0.27 0.20 0.13 0.10 0.10 0.09 0.07 0.16 0.30 0.31 0.39 0.45 0.54 0.45 0.34 0.35 0.39 0.39 0.42
0.61 0.64 0.62 0.65 0.64 0.64 0.68 0.93 1.09 0.97 0.88 0.77 0.79 0.76 0.72 0.67 0.64 0.46 0.44 0.50 0.50 0.50 0.46 0.39 0.35 0.22 0.11 0.06 0.08 0.08 0.05 0.11 0.22 0.22 0.25 0.41 0.49 0.43 0.32 0.30 0.32 0.32 0.31
0.63 0.65 0.61 0.59 0.54 0.55 0.69 0.87 1.05 1.10 1.07 1.04 0.90 0.89 0.84 0.74 0.62 0.46 0.43 0.45 0.45 0.45 0.41 0.42 0.37 0.22 0.14 0.10 0.11 0.09 0.07 0.11 0.18 0.22 0.28 0.47 0.51 0.42 0.37 0.30 0.29 0.29 0.27
0.55 0.58 0.55 0.53 0.51 0.49 0.50 0.61 0.76 0.83 0.82 0.84 0.85 0.79 0.80 0.80 0.72 0.60 0.54 0.57 0.57 0.51 0.50 0.51 0.44 0.32 0.24 0.18 0.17 0.17 0.15 0.13 0.17 0.24 0.31 0.50 0.61 0.51 0.45 0.37 0.34 0.31 0.29
0.48 0.51 0.55 0.58 0.55 0.61 0.60 0.57 0.56 0.62 0.67 0.72 0.79 0.72 0.66 0.69 0.71 0.72 0.64 0.67 0.63 0.60 0.58 0.54 0.39 0.34 0.33 0.24 0.23 0.22 0.21 0.18 0.20 0.22 0.28 0.47 0.71 0.82 0.71 0.56 0.46 0.38 0.36
0.46 0.57 0.62 0.58 0.61 0.60 0.56 0.59 0.62 0.62 0.65 0.68 0.72 0.65 0.59 0.59 0.61 0.71 0.68 0.71 0.62 0.63 0.68 0.59 0.49 0.46 0.40 0.29 0.23 0.24 0.21 0.18 0.19 0.25 0.31 0.43 0.62 0.89 1.04 0.86 0.72 0.62 0.48
0.43 0.57 0.68 0.66 0.69 0.65 0.60 0.63 0.66 0.65 0.62 0.65 0.69 0.62 0.57 0.60 0.61 0.72 0.75 0.72 0.68 0.70 0.70 0.71 0.67 0.58 0.46 0.35 0.28 0.24 0.20 0.20 0.20 0.22 0.25 0.37 0.41 0.50 0.78 0.97 0.98 0.90 0.69
0.40 0.51 0.63 0.65 0.70 0.73 0.72 0.72 0.69 0.65 0.66 0.71 0.74 0.70 0.65 0.63 0.66 0.84 0.89 0.77 0.81 0.87 0.86 0.85 0.79 0.70 0.57 0.48 0.42 0.33 0.25 0.23 0.26 0.24 0.24 0.27 0.22 0.18 0.27 0.39 0.49 0.64 0.74
0.40 0.47 0.52 0.58 0.78 0.81 0.77 0.83 0.83 0.80 0.85 0.89 0.91 0.89 0.83 0.80 0.88 1.04 1.10 1.01 0.98 1.09 1.02 0.90 0.88 0.87 0.75 0.68 0.59 0.50 0.36 0.28 0.28 0.25 0.26 0.31 0.27 0.18 0.17 0.16 0.21 0.27 0.42
0.34 0.39 0.46 0.55 0.67 0.79 0.94 1.02 1.10 1.11 1.11 1.22 1.30 1.28 1.11 1.06 1.12 1.26 1.35 1.31 1.26 1.34 1.31 1.14 1.19 1.17 1.02 0.98 0.82 0.66 0.52 0.44 0.39 0.31 0.29 0.36 0.37 0.29 0.21 0.15 0.17 0.13 0.18
0.25 0.31 0.37 0.54 0.70 0.86 0.98 1.12 1.38 1.54 1.64 1.62 1.63 1.70 1.62 1.43 1.49 1.60 1.56 1.77 1.82 1.77 1.76 1.67 1.72 1.71 1.42 1.20 1.35 1.24 0.84 0.58 0.49 0.45 0.39 0.37 0.35 0.33 0.29 0.24 0.23 0.20 0.13
0.16 0.22 0.30 0.44 0.67 0.92 1.14 1.33 1.52 1.83 1.99 1.99 2.05 2.00 1.95 1.83 1.82 1.74 1.79 2.00 2.04 2.13 2.21 2.03 2.08 2.10 1.77 1.44 1.70 1.95 1.44 1.04 0.61 0.43 0.43 0.43 0.41 0.39 0.34 0.30 0.28 0.25 0.20
0.09 0.14 0.21 0.34 0.57 0.88 1.19 1.44 1.63 1.87 2.14 2.23 2.13 2.09 2.12 2.19 2.22 2.10 2.05 2.15 2.16 2.21 2.35 2.38 2.31 2.31 2.16 1.84 1.76 2.02 1.78 1.48 1.15 0.62 0.47 0.52 0.55 0.49 0.47 0.44 0.38 0.35 0.29
0.10 0.13 0.17 0.32 0.48 0.72 0.99 1.31 1.57 1.83 2.14 2.22 2.19 2.16 2.20 2.31 2.39 2.34 2.28 2.32 2.30 2.23 2.28 2.37 2.36 2.49 2.59 2.27 2.01 1.75 1.55 1.50 1.45 1.08 0.69 0.58 0.65 0.64 0.59 0.50 0.44 0.43 0.40
0.15 0.18 0.24 0.38 0.53 0.74 0.98 1.30 1.62 1.81 1.98 2.17 2.19 2.10 2.03 2.08 2.09 2.08 2.18 2.30 2.29 2.26 2.24 2.39 2.51 2.64 2.58 2.46 2.26 2.08 1.89 1.66 1.30 1.30 1.20 0.94 0.81 0.69 0.69 0.71 0.65 0.59 0.52
0.24 0.30 0.38 0.50 0.71 0.87 0.97 1.11 1.28 1.49 1.77 1.91 2.00 2.04 2.04 2.00 1.86 1.81 1.90 1.99 2.07 2.11 2.10 2.12 2.25 2.38 2.50 2.59 2.48 2.25 2.09 1.92 1.71 1.58 1.29 1.15 1.12 0.90 0.77 0.74 0.78 0.77 0.76

GEFSSE_prec_meanprecacc_108.txt.gz
Total_Precipitation_Accumulation
0.35 0.20 0.39 0.41 0.35 0.33 0.39 0.45 0.45 0.45 0.49 0.56 0.55 0.50 0.43 0.27 0.22 0.19 0.20 0.20 0.27 0.38 0.37 0.34 0.31 0.26 0.21 0.19 0.23 0.29 0.36 0.45 0.49 0.52 0.60 0.63 0.60 0.62 0.74 0.84 0.87 1.05 0.72
0.38 0.27 0.42 0.46 0.36 0.31 0.34 0.38 0.43 0.43 0.45 0.50 0.52 0.51 0.38 0.24 0.19 0.18 0.18 0.19 0.23 0.27 0.29 0.32 0.35 0.30 0.24 0.26 0.31 0.34 0.37 0.42 0.51 0.54 0.69 0.68 0.59 0.62 0.60 0.62 0.75 0.93 0.69
0.39 0.31 0.37 0.47 0.38 0.33 0.34 0.40 0.47 0.49 0.52 0.55 0.56 0.56 0.34 0.22 0.20 0.19 0.20 0.22 0.23 0.19 0.21 0.28 0.34 0.33 0.27 0.31 0.37 0.39 0.39 0.42 0.50 0.56 0.90 1.23 0.78 0.65 0.66 0.68 0.69 0.62 0.65
0.45 0.43 0.48 0.59 0.51 0.41 0.42 0.51 0.59 0.65 0.67 0.73 0.71 0.54 0.29 0.24 0.25 0.24 0.26 0.29 0.23 0.16 0.17 0.20 0.26 0.27 0.25 0.30 0.35 0.34 0.40 0.45 0.54 0.64 0.95 1.31 1.12 0.88 0.82 0.81 0.73 0.55 0.62
0.48 0.54 0.68 0.74 0.64 0.57 0.54 0.61 0.72 0.80 0.78 0.81 0.75 0.51 0.34 0.30 0.30 0.31 0.34 0.29 0.20 0.17 0.15 0.14 0.19 0.20 0.20 0.21 0.26 0.31 0.39 0.51 0.67 0.73 0.96 1.23 1.31 0.94 0.80 0.89 0.87 0.69 0.70
0.44 0.46 0.58 0.71 0.64 0.62 0.67 0.72 0.73 0.67 0.69 0.77 0.70 0.54 0.41 0.41 0.40 0.40 0.33 0.24 0.21 0.19 0.16 0.15 0.16 0.15 0.16 0.16 0.21 0.29 0.41 0.53 0.65 0.81 0.99 1.27 1.24 0.84 0.73 0.86 0.93 0.86 0.79
0.50 0.44 0.51 0.60 0.55 0.55 0.66 0.76 0.78 0.68 0.71 0.75 0.71 0.64 0.47 0.45 0.45 0.45 0.36 0.28 0.25 0.23 0.19 0.17 0.16 0.14 0.13 0.14 0.17 0.25 0.36 0.38 0.56 0.80 0.97 1.26 0.99 0.65 0.58 0.76 1.00 1.06 0.95
0.60 0.55 0.51 0.59 0.57 0.56 0.62 0.70 0.74 0.73 0.81 0.79 0.68 0.61 0.56 0.48 0.46 0.43 0.37 0.33 0.28 0.25 0.25 0.20 0.16 0.14 0.14 0.16 0.19 0.22 0.28 0.26 0.35 0.57 0.76 1.02 0.87 0.72 0.55 0.61 0.84 0.98 1.00
0.69 0.66 0.60 0.60 0.62 0.64 0.73 0.73 0.76 0.82 0.94 0.91 0.72 0.64 0.64 0.51 0.43 0.38 0.36 0.35 0.31 0.30 0.30 0.24 0.19 0.17 0.17 0.19 0.20 0.21 0.23 0.24 0.33 0.46 0.57 0.77 0.76 0.72 0.54 0.55 0.69 0.82 0.95
0.66 0.64 0.58 0.58 0.62 0.67 0.76 0.81 0.82 0.82 0.90 0.89 0.78 0.75 0.72 0.55 0.44 0.42 0.37 0.39 0.40 0.40 0.40 0.33 0.26 0.22 0.21 0.20 0.20 0.19 0.19 0.20 0.33 0.37 0.50 0.52 0.64 0.60 0.45 0.45 0.53 0.62 0.69
0.60 0.61 0.59 0.57 0.60 0.67 0.76 0.79 0.88 0.91 0.94 0.87 0.79 0.82 0.73 0.53 0.49 0.50 0.41 0.48 0.54 0.61 0.57 0.47 0.39 0.30 0.24 0.21 0.19 0.16 0.12 0.17 0.30 0.31 0.40 0.46 0.58 0.52 0.41 0.39 0.44 0.44 0.45
0.62 0.64 0.62 0.65 0.64 0.64 0.69 0.93 1.10 0.98 0.89 0.78 0.80 0.77 0.74 0.70 0.68 0.50 0.49 0.59 0.62 0.67 0.64 0.54 0.49 0.36 0.22 0.13 0.14 0.15 0.08 0.12 0.22 0.22 0.26 0.43 0.55 0.52 0.41 0.35 0.36 0.36 0.34
0.63 0.65 0.61 0.59 0.54 0.55 0.69 0.87 1.06 1.11 1.07 1.04 0.90 0.89 0.84 0.76 0.64 0.49 0.46 0.50 0.51 0.56 0.52 0.53 0.48 0.31 0.22 0.16 0.16 0.12 0.10 0.12 0.19 0.22 0.28 0.50 0.59 0.52 0.46 0.37 0.33 0.33 0.30
0.55 0.58 0.55 0.53 0.51 0.49 0.50 0.61 0.76 0.83 0.82 0.84 0.85 0.79 0.80 0.81 0.74 0.62 0.56 0.59 0.60 0.56 0.58 0.61 0.55 0.42 0.33 0.25 0.22 0.21 0.18 0.14 0.18 0.25 0.32 0.52 0.69 0.63 0.57 0.46 0.40 0.35 0.32
0.49 0.51 0.55 0.58 0.55 0.61 0.60 0.57 0.56 0.62 0.67 0.72 0.79 0.72 0.67 0.69 0.72 0.73 0.66 0.70 0.66 0.64 0.63 0.61 0.46 0.42 0.40 0.31 0.28 0.27 0.25 0.21 0.23 0.24 0.29 0.49 0.77 0.94 0.84 0.68 0.55 0.43 0.39
0.46 0.57 0.62 0.58 0.61 0.60 0.56 0.59 0.62 0.62 0.65 0.68 0.72 0.66 0.60 0.59 0.61 0.72 0.70 0.74 0.65 0.67 0.73 0.64 0.55 0.52 0.46 0.35 0.28 0.30 0.27 0.22 0.22 0.27 0.33 0.45 0.67 0.99 1.15 1.00 0.84 0.70 0.51
0.43 0.57 0.68 0.66 0.69 0.65 0.60 0.63 0.66 0.65 0.62 0.65 0.69 0.62 0.57 0.60 0.61 0.72 0.75 0.73 0.70 0.72 0.74 0.76 0.74 0.66 0.53 0.40 0.32 0.29 0.27 0.26 0.25 0.25 0.28 0.40 0.44 0.57 0.88 1.10 1.10 1.00 0.76
0.40 0.51 0.63 0.65 0.70 0.73 0.72 0.72 0.69 0.65 0.66 0.71 0.74 0.70 0.65 0.63 0.66 0.85 0.89 0.77 0.82 0.90 0.90 0.90 0.85 0.76 0.64 0.54 0.47 0.37 0.29 0.28 0.31 0.29 0.29 0.32 0.28 0.24 0.36 0.51 0.62 0.75 0.86
0.40 0.47 0.52 0.58 0.78 0.81 0.77 0.83 0.83 0.80 0.85 0.89 0.91 0.89 0.83 0.80 0.88 1.04 1.10 1.01 0.99 1.11 1.05 0.93 0.92 0.91 0.80 0.74 0.66 0.57 0.40 0.32 0.33 0.31 0.33 0.38 0.36 0.26 0.23 0.25 0.32 0.40 0.56
0.34 0.39 0.46 0.55 0.67 0.79 0.94 1.02 1.10 1.11 1.11 1.22 1.30 1.28 1.11 1.06 1.12 1.26 1.35 1.31 1.26 1.35 1.32 1.17 1.22 1.21 1.07 1.07 0.92 0.75 0.60 0.51 0.45 0.39 0.37 0.42 0.45 0.37 0.29 0.22 0.25 0.23 0.30
0.25 0.31 0.37 0.54 0.70 0.86 0.98 1.12 1.38 1.54 1.64 1.62 1.63 1.70 1.62 1.43 1.50 1.60 1.56 1.77 1.83 1.79 1.78 1.70 1.77 1.77 1.48 1.28 1.47 1.38 0.93 0.65 0.56 0.53 0.49 0.45 0.44 0.43 0.37 0.31 0.29 0.26 0.20
0.16 0.22 0.30 0.44 0.67 0.92 1.14 1.33 1.52 1.83 1.99 1.99 2.05 2.00 1.95 1.83 1.83 1.75 1.81 2.01 2.05 2.14 2.23 2.06 2.13 2.17 1.84 1.53 1.81 2.10 1.57 1.13 0.67 0.48 0.50 0.50 0.50 0.49 0.43 0.37 0.34 0.31 0.27
0.09 0.14 0.21 0.34 0.57 0.88 1.19 1.44 1.63 1.87 2.14 2.23 2.13 2.09 2.12 2.20 2.23 2.11 2.06 2.17 2.17 2.22 2.38 2.41 2.34 2.35 2.21 1.91 1.84 2.14 1.92 1.59 1.21 0.66 0.51 0.56 0.60 0.56 0.56 0.54 0.45 0.41 0.37
0.10 0.13 0.17 0.32 0.48 0.72 0.99 1.31 1.57 1.83 2.14 2.22 2.19 2.16 2.20 2.32 2.40 2.35 2.29 2.34 2.32 2.25 2.31 2.39 2.39 2.53 2.63 2.33 2.08 1.84 1.65 1.59 1.54 1.13 0.73 0.62 0.70 0.69 0.66 0.57 0.51 0.51 0.48
0.15 0.18 0.24 0.38 0.53 0.74 0.98 1.30 1.62 1.81 1.98 2.18 2.19 2.10 2.03 2.08 2.10 2.08 2.19 2.32 2.31 2.27 2.25 2.41 2.53 2.67 2.61 2.50 2.32 2.16 1.98 1.75 1.37 1.36 1.26 0.99 0.86 0.73 0.74 0.76 0.70 0.67 0.62
0.24 0.30 0.38 0.50 0.71 0.87 0.97 1.11 1.28 1.49 1.78 1.92 2.02 2.05 2.05 2.02 1.88 1.82 1.91 2.00 2.08 2.12 2.11 2.13 2.26 2.39 2.53 2.64 2.52 2.30 2.16 2.00 1.80 1.64 1.34 1.21 1.18 0.95 0.82 0.79 0.83 0.81 0.82

GEFSSE_prec_meanprecacc_114.txt.gz
Total_Precipitation_Accumulation
0.38 0.22 0.44 0.48 0.41 0.39 0.44 0.53 0.53 0.52 0.57 0.64 0.60 0.54 0.48 0.33 0.26 0.21 0.21 0.22 0.29 0.40 0.39 0.34 0.31 0.26 0.21 0.19 0.24 0.30 0.37 0.45 0.50 0.53 0.61 0.63 0.60 0.63 0.75 0.87 0.90 1.08 0.74
0.40 0.28 0.48 0.54 0.44 0.40 0.42 0.46 0.50 0.49 0.52 0.58 0.59 0.58 0.44 0.29 0.24 0.21 0.20 0.20 0.24 0.29 0.31 0.33 0.35 0.30 0.24 0.26 0.31 0.35 0.37 0.42 0.52 0.56 0.70 0.70 0.60 0.63 0.61 0.65 0.78 0.95 0.71
0.42 0.34 0.42 0.53 0.46 0.41 0.42 0.47 0.53 0.55 0.57 0.61 0.64 0.65 0.42 0.29 0.26 0.24 0.25 0.26 0.26 0.21 0.23 0.30 0.35 0.34 0.28 0.32 0.37 0.39 0.40 0.43 0.51 0.58 0.91 1.27 0.81 0.66 0.67 0.70 0.71 0.63 0.68
0.49 0.47 0.52 0.66 0.59 0.49 0.49 0.57 0.65 0.70 0.74 0.80 0.78 0.63 0.40 0.33 0.33 0.32 0.34 0.35 0.29 0.22 0.21 0.23 0.28 0.29 0.26 0.31 0.36 0.35 0.42 0.46 0.56 0.65 0.96 1.33 1.15 0.89 0.83 0.83 0.76 0.58 0.64
0.52 0.57 0.72 0.81 0.71 0.64 0.61 0.67 0.78 0.87 0.85 0.87 0.82 0.59 0.46 0.42 0.42 0.41 0.45 0.38 0.29 0.25 0.22 0.21 0.23 0.23 0.23 0.23 0.28 0.32 0.40 0.53 0.69 0.74 1.00 1.27 1.36 0.96 0.81 0.91 0.90 0.72 0.74
0.48 0.49 0.62 0.77 0.70 0.67 0.71 0.78 0.79 0.74 0.76 0.83 0.76 0.60 0.48 0.51 0.50 0.49 0.43 0.35 0.32 0.31 0.28 0.25 0.24 0.22 0.21 0.20 0.24 0.31 0.42 0.55 0.66 0.83 1.03 1.31 1.29 0.87 0.75 0.89 0.96 0.90 0.84
0.54 0.47 0.55 0.65 0.62 0.63 0.72 0.81 0.83 0.74 0.77 0.82 0.79 0.71 0.53 0.52 0.54 0.54 0.45 0.37 0.35 0.36 0.34 0.31 0.28 0.24 0.21 0.20 0.23 0.28 0.39 0.40 0.57 0.82 0.99 1.30 1.02 0.67 0.62 0.80 1.03 1.10 0.99
0.62 0.57 0.54 0.62 0.61 0.60 0.65 0.73 0.78 0.77 0.85 0.84 0.73 0.67 0.62 0.54 0.53 0.51 0.46 0.44 0.41 0.40 0.39 0.36 0.31 0.28 0.26 0.26 0.24 0.26 0.32 0.29 0.36 0.59 0.78 1.06 0.90 0.74 0.59 0.66 0.88 1.02 1.04
0.70 0.67 0.62 0.62 0.63 0.66 0.74 0.75 0.78 0.85 0.96 0.94 0.75 0.69 0.69 0.57 0.49 0.46 0.45 0.46 0.44 0.45 0.47 0.41 0.33 0.28 0.30 0.31 0.28 0.27 0.28 0.29 0.35 0.49 0.59 0.80 0.79 0.75 0.58 0.60 0.74 0.85 0.99
0.66 0.64 0.58 0.59 0.63 0.68 0.77 0.82 0.83 0.83 0.92 0.91 0.80 0.78 0.78 0.62 0.51 0.50 0.46 0.48 0.50 0.52 0.56 0.50 0.41 0.34 0.32 0.33 0.30 0.28 0.27 0.25 0.36 0.40 0.52 0.54 0.67 0.66 0.50 0.50 0.58 0.66 0.72
0.61 0.62 0.59 0.57 0.61 0.67 0.76 0.79 0.89 0.91 0.95 0.88 0.81 0.85 0.76 0.56 0.52 0.53 0.47 0.56 0.64 0.73 0.71 0.62 0.54 0.43 0.36 0.32 0.29 0.26 0.21 0.22 0.34 0.34 0.43 0.48 0.63 0.61 0.50 0.47 0.50 0.49 0.49
0.63 0.65 0.63 0.66 0.64 0.64 0.69 0.93 1.10 0.98 0.89 0.78 0.80 0.78 0.75 0.72 0.69 0.51 0.52 0.65 0.69 0.75 0.75 0.67 0.62 0.48 0.32 0.22 0.23 0.23 0.15 0.17 0.26 0.25 0.28 0.45 0.61 0.61 0.53 0.47 0.44 0.41 0.40
0.64 0.66 0.61 0.59 0.54 0.55 0.69 0.87 1.06 1.11 1.07 1.04 0.90 0.89 0.85 0.76 0.65 0.50 0.47 0.51 0.56 0.61 0.58 0.61 0.57 0.39 0.30 0.26 0.26 0.20 0.17 0.17 0.23 0.25 0.31 0.52 0.64 0.60 0.57 0.48 0.43 0.39 0.36
0.55 0.58 0.55 0.53 0.51 0.49 0.50 0.61 0.76 0.83 0.82 0.84 0.85 0.79 0.80 0.81 0.74 0.63 0.57 0.60 0.62 0.59 0.62 0.66 0.60 0.48 0.39 0.33 0.31 0.29 0.25 0.22 0.24 0.29 0.35 0.54 0.72 0.70 0.67 0.58 0.52 0.43 0.38
0.49 0.52 0.55 0.58 0.55 0.61 0.60 0.57 0.56 0.62 0.67 0.72 0.79 0.72 0.67 0.69 0.72 0.74 0.67 0.71 0.67 0.66 0.67 0.66 0.52 0.48 0.46 0.36 0.34 0.34 0.35 0.29 0.30 0.28 0.31 0.50 0.79 1.00 0.94 0.81 0.68 0.52 0.47
0.46 0.57 0.62 0.58 0.61 0.60 0.56 0.59 0.62 0.62 0.65 0.68 0.73 0.66 0.60 0.60 0.62 0.72 0.71 0.75 0.66 0.68 0.75 0.68 0.60 0.58 0.53 0.42 0.34 0.36 0.35 0.29 0.27 0.30 0.35 0.47 0.68 1.02 1.22 1.12 0.99 0.81 0.60
0.43 0.57 0.68 0.66 0.69 0.65 0.60 0.63 0.66 0.65 0.62 0.65 0.69 0.62 0.57 0.61 0.62 0.73 0.76 0.74 0.71 0.74 0.76 0.79 0.79 0.72 0.60 0.48 0.39 0.35 0.32 0.33 0.30 0.28 0.31 0.43 0.46 0.59 0.93 1.19 1.23 1.13 0.88
0.40 0.51 0.63 0.65 0.70 0.73 0.72 0.72 0.69 0.65 0.66 0.71 0.74 0.70 0.65 0.64 0.67 0.86 0.90 0.78 0.83 0.92 0.93 0.94 0.90 0.81 0.70 0.61 0.56 0.46 0.35 0.34 0.37 0.33 0.32 0.36 0.33 0.29 0.41 0.57 0.70 0.85 0.99
0.40 0.47 0.52 0.58 0.78 0.81 0.77 0.83 0.83 0.80 0.86 0.89 0.91 0.89 0.83 0.80 0.88 1.05 1.11 1.02 0.99 1.13 1.08 0.96 0.95 0.95 0.83 0.79 0.74 0.67 0.48 0.38 0.38 0.36 0.37 0.42 0.41 0.32 0.33 0.32 0.38 0.47 0.67
0.34 0.39 0.46 0.55 0.67 0.79 0.94 1.02 1.10 1.11 1.11 1.23 1.30 1.28 1.11 1.07 1.12 1.26 1.36 1.32 1.27 1.37 1.35 1.20 1.25 1.24 1.11 1.12 1.00 0.84 0.68 0.56 0.50 0.46 0.43 0.47 0.52 0.43 0.37 0.31 0.34 0.31 0.39
0.25 0.31 0.37 0.54 0.70 0.86 0.98 1.12 1.38 1.54 1.64 1.62 1.63 1.70 1.62 1.43 1.51 1.62 1.58 1.78 1.84 1.81 1.80 1.72 1.80 1.80 1.52 1.34 1.55 1.46 1.01 0.72 0.62 0.59 0.55 0.52 0.50 0.49 0.45 0.40 0.38 0.33 0.28
0.16 0.22 0.30 0.44 0.67 0.92 1.14 1.33 1.52 1.84 1.99 1.99 2.05 2.00 1.95 1.84 1.84 1.76 1.83 2.03 2.07 2.16 2.25 2.08 2.16 2.20 1.88 1.58 1.89 2.20 1.68 1.24 0.74 0.53 0.54 0.56 0.56 0.55 0.50 0.44 0.43 0.40 0.34
0.09 0.14 0.21 0.34 0.57 0.88 1.19 1.44 1.64 1.87 2.14 2.23 2.14 2.09 2.12 2.20 2.23 2.12 2.08 2.19 2.19 2.25 2.40 2.43 2.37 2.39 2.27 1.97 1.92 2.26 2.04 1.71 1.31 0.72 0.56 0.61 0.66 0.63 0.63 0.61 0.53 0.49 0.44
0.10 0.13 0.17 0.32 0.48 0.72 0.99 1.31 1.57 1.83 2.15 2.22 2.20 2.17 2.20 2.32 2.41 2.35 2.29 2.35 2.35 2.28 2.35 2.43 2.42 2.57 2.69 2.39 2.14 1.91 1.76 1.71 1.69 1.25 0.80 0.67 0.75 0.75 0.73 0.64 0.59 0.60 0.56
0.15 0.18 0.24 0.38 0.53 0.74 0.98 1.30 1.62 1.82 1.99 2.19 2.20 2.11 2.04 2.09 2.11 2.09 2.20 2.34 2.34 2.30 2.28 2.43 2.55 2.71 2.65 2.55 2.37 2.23 2.05 1.83 1.46 1.48 1.36 1.05 0.91 0.79 0.80 0.82 0.77 0.76 0.72
0.24 0.30 0.38 0.50 0.71 0.87 0.97 1.12 1.29 1.50 1.78 1.92 2.02 2.05 2.06 2.03 1.90 1.84 1.92 2.02 2.10 2.14 2.13 2.15 2.28 2.42 2.57 2.68 2.58 2.37 2.24 2.08 1.87 1.73 1.44 1.27 1.23 1.00 0.87 0.84 0.88 0.85 0.88

GEFSSE_prec_meanprecacc_120.txt.gz
Total_Precipitation_Accumulation
0.47 0.25 0.45 0.50 0.43 0.40 0.47 0.55 0.56 0.55 0.60 0.68 0.65 0.58 0.53 0.37 0.29 0.24 0.23 0.23 0.30 0.41 0.40 0.37 0.34 0.29 0.22 0.20 0.24 0.31 0.38 0.46 0.51 0.53 0.62 0.65 0.61 0.64 0.77 0.90 0.98 1.23 0.79
0.46 0.31 0.49 0.55 0.45 0.41 0.44 0.49 0.53 0.52 0.55 0.61 0.63 0.63 0.48 0.33 0.28 0.25 0.23 0.23 0.26 0.30 0.32 0.35 0.38 0.34 0.27 0.28 0.33 0.36 0.39 0.43 0.53 0.56 0.71 0.75 0.64 0.65 0.62 0.68 0.85 1.03 0.74
0.46 0.37 0.43 0.55 0.47 0.43 0.44 0.49 0.55 0.58 0.60 0.63 0.68 0.70 0.47 0.33 0.30 0.28 0.28 0.29 0.28 0.24 0.26 0.33 0.39 0.38 0.32 0.34 0.39 0.41 0.42 0.44 0.52 0.59 0.95 1.45 0.96 0.70 0.68 0.72 0.74 0.66 0.71
0.51 0.49 0.54 0.68 0.60 0.51 0.50 0.59 0.67 0.73 0.76 0.82 0.81 0.68 0.46 0.39 0.39 0.37 0.38 0.38 0.33 0.26 0.26 0.28 0.33 0.34 0.31 0.34 0.39 0.37 0.44 0.49 0.57 0.67 1.06 1.49 1.34 0.95 0.84 0.84 0.77 0.61 0.70
0.53 0.59 0.74 0.82 0.72 0.65 0.62 0.69 0.81 0.90 0.88 0.90 0.84 0.61 0.49 0.47 0.48 0.47 0.51 0.44 0.34 0.30 0.27 0.28 0.31 0.30 0.28 0.28 0.32 0.35 0.42 0.55 0.72 0.80 1.11 1.42 1.57 1.04 0.82 0.92 0.93 0.76 0.80
0.49 0.50 0.64 0.78 0.72 0.68 0.72 0.79 0.81 0.77 0.79 0.87 0.79 0.62 0.50 0.54 0.54 0.54 0.48 0.41 0.39 0.37 0.34 0.33 0.32 0.30 0.31 0.28 0.29 0.35 0.45 0.57 0.70 0.90 1.10 1.44 1.50 0.97 0.76 0.90 0.99 0.95 0.91
0.55 0.48 0.56 0.67 0.65 0.64 0.72 0.82 0.84 0.76 0.79 0.83 0.81 0.73 0.55 0.54 0.56 0.59 0.50 0.43 0.41 0.42 0.40 0.39 0.36 0.32 0.28 0.27 0.28 0.32 0.42 0.42 0.61 0.87 1.05 1.41 1.17 0.73 0.63 0.81 1.06 1.14 1.04
0.64 0.58 0.55 0.63 0.61 0.61 0.67 0.75 0.79 0.78 0.86 0.85 0.74 0.68 0.64 0.55 0.54 0.54 0.49 0.49 0.47 0.46 0.45 0.44 0.38 0.34 0.33 0.31 0.29 0.30 0.36 0.32 0.40 0.63 0.83 1.15 0.99 0.78 0.60 0.67 0.89 1.04 1.09
0.70 0.68 0.62 0.62 0.63 0.67 0.75 0.76 0.79 0.86 0.97 0.94 0.76 0.69 0.70 0.58 0.51 0.48 0.48 0.49 0.49 0.50 0.53 0.47 0.39 0.34 0.37 0.38 0.35 0.32 0.31 0.31 0.39 0.53 0.63 0.88 0.84 0.78 0.60 0.61 0.76 0.87 1.02
0.67 0.64 0.59 0.59 0.63 0.68 0.78 0.82 0.83 0.83 0.92 0.92 0.81 0.79 0.79 0.63 0.53 0.52 0.49 0.51 0.53 0.55 0.60 0.55 0.46 0.39 0.39 0.40 0.37 0.34 0.30 0.27 0.37 0.43 0.58 0.61 0.72 0.69 0.54 0.52 0.61 0.70 0.76
0.61 0.62 0.59 0.57 0.61 0.67 0.77 0.79 0.89 0.91 0.95 0.88 0.81 0.85 0.76 0.56 0.53 0.55 0.49 0.58 0.66 0.76 0.76 0.68 0.59 0.49 0.43 0.37 0.34 0.31 0.24 0.23 0.38 0.39 0.49 0.55 0.66 0.63 0.52 0.51 0.55 0.54 0.54
0.64 0.65 0.63 0.66 0.64 0.64 0.69 0.93 1.10 0.98 0.89 0.78 0.80 0.78 0.75 0.72 0.70 0.52 0.52 0.66 0.71 0.77 0.78 0.70 0.66 0.53 0.37 0.27 0.32 0.31 0.19 0.22 0.31 0.29 0.33 0.49 0.63 0.63 0.55 0.51 0.48 0.45 0.44
0.64 0.66 0.61 0.59 0.54 0.55 0.69 0.87 1.06 1.11 1.07 1.04 0.90 0.89 0.85 0.76 0.65 0.51 0.48 0.53 0.58 0.64 0.60 0.64 0.61 0.42 0.34 0.32 0.36 0.29 0.22 0.23 0.28 0.29 0.37 0.58 0.68 0.62 0.59 0.52 0.47 0.43 0.40
0.56 0.59 0.55 0.53 0.51 0.49 0.50 0.61 0.76 0.83 0.82 0.84 0.85 0.79 0.80 0.81 0.74 0.63 0.58 0.62 0.64 0.61 0.66 0.70 0.66 0.53 0.44 0.36 0.35 0.34 0.31 0.28 0.31 0.36 0.42 0.60 0.76 0.73 0.71 0.62 0.57 0.48 0.43
0.50 0.52 0.55 0.58 0.55 0.61 0.60 0.57 0.56 0.62 0.67 0.72 0.80 0.72 0.67 0.70 0.73 0.74 0.69 0.73 0.69 0.67 0.69 0.69 0.56 0.53 0.51 0.41 0.38 0.39 0.41 0.35 0.38 0.36 0.40 0.55 0.82 1.04 0.98 0.85 0.74 0.59 0.52
0.47 0.57 0.62 0.58 0.61 0.60 0.56 0.59 0.62 0.62 0.66 0.69 0.73 0.66 0.60 0.60 0.62 0.74 0.72 0.77 0.68 0.70 0.77 0.70 0.63 0.62 0.60 0.50 0.40 0.41 0.40 0.36 0.37 0.42 0.46 0.57 0.73 1.06 1.28 1.17 1.05 0.89 0.67
0.43 0.57 0.68 0.66 0.69 0.65 0.60 0.63 0.66 0.66 0.63 0.65 0.69 0.62 0.57 0.61 0.62 0.74 0.78 0.77 0.73 0.76 0.79 0.82 0.81 0.75 0.65 0.55 0.47 0.43 0.40 0.40 0.40 0.40 0.41 0.56 0.58 0.65 0.98 1.24 1.29 1.20 0.95
0.40 0.51 0.63 0.65 0.70 0.73 0.72 0.72 0.69 0.65 0.66 0.72 0.75 0.70 0.66 0.64 0.67 0.86 0.92 0.80 0.85 0.94 0.97 0.98 0.94 0.85 0.75 0.68 0.67 0.56 0.45 0.43 0.44 0.43 0.42 0.45 0.43 0.39 0.48 0.62 0.75 0.91 1.06
0.40 0.47 0.52 0.58 0.78 0.81 0.77 0.83 0.83 0.80 0.86 0.89 0.92 0.89 0.84 0.80 0.88 1.05 1.12 1.03 1.01 1.14 1.11 1.00 1.00 0.99 0.89 0.86 0.82 0.76 0.58 0.48 0.46 0.43 0.45 0.51 0.50 0.44 0.43 0.39 0.43 0.52 0.73
0.34 0.39 0.46 0.55 0.67 0.79 0.94 1.02 1.10 1.11 1.11 1.23 1.30 1.29 1.12 1.07 1.13 1.28 1.37 1.33 1.29 1.39 1.37 1.24 1.30 1.28 1.16 1.19 1.07 0.92 0.76 0.65 0.59 0.54 0.50 0.54 0.60 0.52 0.47 0.40 0.40 0.36 0.43
0.25 0.31 0.37 0.54 0.70 0.86 0.98 1.13 1.38 1.54 1.64 1.63 1.63 1.70 1.62 1.43 1.52 1.63 1.59 1.80 1.86 1.83 1.83 1.76 1.85 1.84 1.57 1.41 1.63 1.55 1.11 0.81 0.69 0.67 0.64 0.59 0.58 0.59 0.57 0.54 0.48 0.40 0.34
0.16 0.22 0.30 0.44 0.67 0.92 1.15 1.33 1.52 1.84 2.00 2.00 2.06 2.01 1.96 1.84 1.86 1.79 1.86 2.06 2.10 2.19 2.28 2.11 2.20 2.25 1.92 1.63 1.96 2.29 1.77 1.35 0.83 0.61 0.63 0.65 0.65 0.65 0.64 0.56 0.54 0.50 0.41
0.09 0.14 0.21 0.34 0.57 0.88 1.19 1.45 1.64 1.88 2.14 2.24 2.15 2.10 2.13 2.21 2.25 2.14 2.09 2.21 2.22 2.28 2.44 2.47 2.41 2.45 2.33 2.02 1.99 2.36 2.15 1.82 1.41 0.83 0.66 0.69 0.74 0.73 0.74 0.73 0.66 0.60 0.51
0.10 0.13 0.17 0.32 0.48 0.72 0.99 1.32 1.57 1.84 2.15 2.22 2.20 2.17 2.21 2.33 2.41 2.37 2.31 2.37 2.37 2.31 2.39 2.47 2.46 2.63 2.75 2.45 2.21 1.99 1.85 1.82 1.79 1.35 0.88 0.75 0.83 0.84 0.84 0.75 0.72 0.75 0.70
0.15 0.18 0.24 0.38 0.53 0.74 0.98 1.30 1.63 1.82 1.99 2.19 2.20 2.11 2.05 2.11 2.12 2.11 2.21 2.36 2.37 2.33 2.33 2.49 2.60 2.77 2.71 2.60 2.44 2.31 2.12 1.91 1.55 1.57 1.44 1.14 1.00 0.87 0.90 0.94 0.91 0.92 0.89
0.24 0.30 0.38 0.50 0.72 0.87 0.97 1.12 1.29 1.50 1.78 1.92 2.02 2.06 2.07 2.06 1.93 1.85 1.94 2.04 2.13 2.18 2.16 2.19 2.33 2.47 2.61 2.73 2.63 2.45 2.32 2.17 1.96 1.81 1.51 1.36 1.33 1.10 0.96 0.93 0.98 0.98 1.02